This is the latest recevied weather packets stored in our database for station/object WA1TYB-13. If no packets are shown the sender has not sent any weather packets the latest 10 day(s).
| Time | Temp. | Humidity | Pressure | Rain* | Wind** | Luminosity | Snow |
|---|---|---|---|---|---|---|---|
| 1777660480 | 16.67° C | 30% | 1021.7 hPa | 0 mm | - | 631 W/m² | - |
| 1777660176 | 16.67° C | 27% | 1021.5 hPa | 0 mm | - | 643 W/m² | - |
| 1777659873 | 16.67° C | 30% | 1021.7 hPa | 0 mm | - | 619 W/m² | - |
| 1777659570 | 16.67° C | 37% | 1022 hPa | 0 mm | - | 602 W/m² | - |
| 1777659267 | 16.11° C | 31% | 1021.7 hPa | 0 mm | - | 609 W/m² | - |
| 1777658964 | 16.11° C | 34% | 1022.1 hPa | 0 mm | - | 657 W/m² | - |
| 1777658661 | 16.11° C | 33% | 1022 hPa | 0 mm | - | 701 W/m² | - |
| 1777658357 | 15.56° C | 35% | 1022.2 hPa | 0 mm | - | 692 W/m² | - |
| 1777658055 | 15.56° C | 33% | 1022.2 hPa | 0 mm | - | 694 W/m² | - |
| 1777657751 | 15° C | 40% | 1022.1 hPa | 0 mm | - | 684 W/m² | - |
| 1777657449 | 15° C | 37% | 1022.2 hPa | 0 mm | - | 681 W/m² | - |
| 1777657146 | 14.44° C | 36% | 1022.4 hPa | 0 mm | - | 675 W/m² | - |
| 1777656844 | 14.44° C | 35% | 1022.5 hPa | 0 mm | - | 675 W/m² | - |
| 1777656539 | 14.44° C | 38% | 1022.3 hPa | 0 mm | - | 707 W/m² | - |
| 1777656234 | 14.44° C | 37% | 1022.3 hPa | 0 mm | - | 695 W/m² | - |
| 1777655930 | 13.89° C | 37% | 1022.8 hPa | 0 mm | - | 685 W/m² | - |
| 1777655627 | 13.89° C | 36% | 1022.8 hPa | 0 mm | - | 698 W/m² | - |
| 1777655324 | 13.33° C | 37% | 1022.7 hPa | 0 mm | - | 671 W/m² | - |
| 1777655021 | 13.33° C | 39% | 1022.8 hPa | 0 mm | - | 650 W/m² | - |
| 1777654718 | 13.33° C | 39% | 1022.8 hPa | 0 mm | - | 659 W/m² | - |
| 1777654416 | 13.33° C | 39% | 1023.1 hPa | 0 mm | - | 657 W/m² | - |
| 1777654114 | 12.22° C | 41% | 1023.1 hPa | 0 mm | - | 639 W/m² | - |
| 1777653812 | 12.78° C | 43% | 1023.2 hPa | 0 mm | - | 642 W/m² | - |
| 1777653507 | 12.78° C | 41% | 1023 hPa | 0 mm | - | 619 W/m² | - |
| 1777653204 | 12.22° C | 44% | 1023 hPa | 0 mm | - | 578 W/m² | - |
* Rain latest hour (hover to see other rain measurements)
** Current wind speed in m/s (hover to see current wind gust speed)